RH
59 57 57 56 51 46 47 46 46 46 39 37 35 34 34 32 31 29 26 22 20 19 18 18 18 18 17 17 17 18 19 19 19 20 23 26 29 31 31 30 32 32 33
58 60 62 61 62 56 56 57 50 48 45 40 39 36 35 35 33 30 26 23 21 20 19 19 19 19 18 18 18 19 20 19 20 22 24 28 30 33 31 33 35 37 38
58 62 66 67 69 67 60 57 54 55 54 51 46 42 40 36 33 29 26 25 23 21 21 21 21 20 20 19 20 21 20 21 22 23 28 31 32 33 35 37 40 42 43
59 62 64 68 71 72 70 68 65 64 60 54 46 42 39 35 32 29 29 27 24 23 22 22 22 21 21 21 22 22 22 22 24 28 32 34 36 39 41 44 46 47 48
62 61 65 70 72 72 70 70 67 66 53 48 45 44 42 35 32 31 30 28 26 25 24 24 23 22 23 24 24 24 24 25 29 33 36 39 42 45 47 47 50 52 53
57 58 63 66 67 67 67 67 66 63 57 55 54 45 38 35 33 33 32 30 28 27 26 25 24 25 26 27 28 27 28 33 36 38 42 46 49 51 52 52 52 51 51
47 50 49 54 62 64 70 74 73 63 59 57 49 43 38 36 36 34 32 30 30 29 28 27 27 28 30 31 31 33 37 40 42 47 51 54 55 57 59 59 57 53 50
42 43 45 56 66 70 67 62 60 62 57 53 47 42 38 38 37 35 33 33 32 30 29 29 31 33 34 34 39 42 45 48 53 57 60 63 66 66 63 57 52 46 43
37 41 45 50 52 54 58 59 55 49 48 46 44 41 39 39 37 36 35 33 31 30 31 34 36 36 39 45 48 50 54 59 63 65 67 64 57 50 47 45 42 39 36
28 32 38 44 48 51 50 46 44 45 46 44 42 40 41 40 38 37 34 33 33 35 37 38 40 45 50 53 55 58 59 59 56 53 50 45 42 41 39 35 31 28 24
33 37 40 42 43 45 44 42 44 45 44 44 42 42 43 41 38 36 35 37 39 39 41 46 52 53 52 51 52 54 53 53 53 47 42 41 38 33 30 25 23 21 20
33 36 37 38 38 40 41 42 43 44 44 43 44 45 43 41 39 40 41 41 42 47 53 52 50 51 54 56 55 55 56 50 42 41 37 33 29 25 23 23 24 23 22
31 34 35 35 37 38 40 41 42 43 44 45 46 45 43 43 44 43 44 47 50 50 50 52 55 57 58 60 60 51 43 40 38 34 31 28 25 23 23 23 23 22 23
31 32 34 36 37 39 40 41 43 46 47 47 47 46 46 46 46 47 50 50 51 54 56 59 60 63 61 52 44 40 40 37 33 30 27 25 24 24 24 23 24 24 26
35 36 37 38 40 42 44 46 47 48 47 48 48 48 49 48 49 49 53 57 60 62 63 64 63 54 45 42 42 40 37 34 31 28 27 26 25 24 24 25 24 27 29
37 38 39 40 41 42 44 45 47 48 50 50 52 50 49 50 56 62 65 66 68 68 61 53 47 44 44 42 41 37 34 32 31 29 28 27 25 24 24 24 25 29 36
37 37 37 38 41 44 46 48 49 52 53 51 49 52 60 67 69 71 73 70 63 55 50 48 45 44 43 40 37 35 33 32 31 30 30 27 26 27 28 27 28 32 37
36 36 38 40 43 45 48 52 55 54 51 57 65 71 73 74 75 71 66 59 54 51 47 46 44 42 40 37 36 35 34 33 33 32 31 29 28 28 29 33 34 35 38
40 41 44 47 50 54 58 60 60 64 70 73 75 75 76 73 69 64 58 54 52 49 47 44 41 38 38 39 38 38 37 35 33 32 31 31 30 30 37 45 44 42 43
53 55 59 63 66 67 66 68 69 71 75 77 79 78 73 69 63 59 57 53 50 46 43 41 40 39 39 39 40 38 36 36 35 33 34 37 37 39 45 52 54 54 50
58 63 67 68 68 67 68 70 73 77 81 81 75 69 65 62 61 57 53 48 43 42 41 40 38 37 37 36 35 35 39 38 37 38 39 42 45 50 55 63 64 61 61
63 67 69 69 69 71 72 73 77 79 80 72 68 64 64 60 56 52 46 42 41 37 33 31 31 32 32 34 35 36 41 43 46 46 46 47 51 60 65 67 63 62 66
65 68 69 70 72 74 76 79 81 83 74 69 70 66 59 56 50 45 41 37 35 33 31 30 29 29 31 35 36 37 42 45 47 48 50 59 64 66 66 64 58 61 64
73 74 75 77 80 81 81 91 84 76 74 73 68 63 57 50 42 38 38 37 34 33 30 28 29 32 33 35 38 44 48 50 54 58 63 68 70 68 65 60 59 62 71
79 80 83 85 86 86 90 85 81 79 74 68 62 55 47 42 43 42 37 34 32 30 30 32 34 35 35 39 48 56 56 57 61 69 69 69 69 64 65 61 59 68 81
86 88 89 88 88 95 91 84 78 73 67 59 50 46 47 45 40 36 32 31 30 30 30 32 36 38 40 44 53 60 62 64 71 72 73 69 67 68 65 63 66 82 83